Time,TemperatureF,DewpointF,PressureIn,WindDirection,WindDirectionDegrees,WindSpeedMPH,WindSpeedGustMPH,Humidity,HourlyPrecipIn,Conditions,Clouds,dailyrainin,SoftwareType,DateUTC
2013-09-16 00:05:00,59.6,52.0,30.01,NNE,18,2.0,3.0,76,0.00,,,0.00,weatherlink.com 1.10,2013-09-16 04:05:00,
2013-09-16 00:20:00,59.6,52.0,30.01,North,357,5.0,6.0,76,0.00,,,0.00,weatherlink.com 1.10,2013-09-16 04:20:00,
2013-09-16 00:35:00,60.1,52.0,30.02,WNW,283,1.0,4.0,75,0.00,,,0.00,weatherlink.com 1.10,2013-09-16 04:35:00,
2013-09-16 00:50:00,61.2,52.0,30.02,West,264,2.0,7.0,73,0.00,,,0.00,weatherlink.com 1.10,2013-09-16 04:50:00,
2013-09-16 01:05:00,60.3,53.0,30.01,NE,34,1.0,2.0,77,0.00,,,0.00,weatherlink.com 1.10,2013-09-16 05:05:00,
2013-09-16 01:20:00,58.7,53.0,30.00,NE,34,0.0,0.0,81,0.00,,,0.00,weatherlink.com 1.10,2013-09-16 05:20:00,
2013-09-16 01:35:00,57.8,53.0,30.01,NE,34,0.0,0.0,83,0.00,,,0.00,weatherlink.com 1.10,2013-09-16 05:35:00,
2013-09-16 01:50:00,57.5,53.0,30.02,NNE,28,0.0,0.0,85,0.00,,,0.00,weatherlink.com 1.10,2013-09-16 05:50:00,
2013-09-16 02:05:00,57.9,53.0,30.02,WSW,254,1.0,1.0,83,0.00,,,0.00,weatherlink.com 1.10,2013-09-16 06:05:00,
2013-09-16 02:20:00,57.4,53.0,30.02,NNE,17,0.0,1.0,86,0.00,,,0.00,weatherlink.com 1.10,2013-09-16 06:20:00,
2013-09-16 02:35:00,56.9,53.0,30.01,NE,45,1.0,2.0,88,0.00,,,0.00,weatherlink.com 1.10,2013-09-16 06:35:00,
2013-09-16 02:50:00,56.7,53.0,30.01,NE,41,0.0,1.0,87,0.00,,,0.00,weatherlink.com 1.10,2013-09-16 06:50:00,
2013-09-16 03:05:00,56.6,54.0,30.01,North,4,0.0,1.0,89,0.00,,,0.00,weatherlink.com 1.10,2013-09-16 07:05:00,
2013-09-16 03:20:00,56.7,54.0,30.01,North,9,0.0,3.0,90,0.00,,,0.00,weatherlink.com 1.10,2013-09-16 07:20:00,
2013-09-16 03:35:00,55.7,54.0,30.01,NE,39,0.0,2.0,93,0.01,,,0.01,weatherlink.com 1.10,2013-09-16 07:35:00,
2013-09-16 03:50:00,55.4,54.0,30.01,NNE,27,0.0,0.0,94,0.02,,,0.02,weatherlink.com 1.10,2013-09-16 07:50:00,
2013-09-16 04:05:00,55.3,54.0,30.02,NNE,27,0.0,0.0,95,0.02,,,0.02,weatherlink.com 1.10,2013-09-16 08:05:00,
2013-09-16 04:20:00,55.0,54.0,30.01,NNE,32,0.0,2.0,95,0.02,,,0.02,weatherlink.com 1.10,2013-09-16 08:20:00,
2013-09-16 04:35:00,54.9,54.0,30.02,NNE,20,0.0,1.0,96,0.01,,,0.02,weatherlink.com 1.10,2013-09-16 08:35:00,
2013-09-16 04:50:00,54.8,54.0,30.01,NNE,20,0.0,0.0,96,0.00,,,0.02,weatherlink.com 1.10,2013-09-16 08:50:00,
2013-09-16 05:05:00,54.8,54.0,30.01,NNE,20,0.0,0.0,96,0.00,,,0.02,weatherlink.com 1.10,2013-09-16 09:05:00,
2013-09-16 05:20:00,54.8,54.0,30.02,NNE,20,0.0,0.0,97,0.00,,,0.02,weatherlink.com 1.10,2013-09-16 09:20:00,
2013-09-16 05:35:00,54.8,54.0,30.02,NE,42,0.0,0.0,97,0.01,,,0.03,weatherlink.com 1.10,2013-09-16 09:35:00,
2013-09-16 05:50:00,54.8,54.0,30.01,SSE,151,0.0,2.0,97,0.01,,,0.03,weatherlink.com 1.10,2013-09-16 09:50:00,
2013-09-16 06:05:00,54.7,54.0,30.01,NE,46,0.0,0.0,97,0.01,,,0.03,weatherlink.com 1.10,2013-09-16 10:05:00,
2013-09-16 06:20:00,54.5,54.0,30.02,NE,39,0.0,0.0,97,0.01,,,0.03,weatherlink.com 1.10,2013-09-16 10:20:00,
2013-09-16 06:35:00,54.7,54.0,30.03,NE,34,0.0,2.0,97,0.00,,,0.03,weatherlink.com 1.10,2013-09-16 10:35:00,
2013-09-16 06:50:00,54.6,54.0,30.02,NE,34,2.0,3.0,97,0.00,,,0.03,weatherlink.com 1.10,2013-09-16 10:50:00,
2013-09-16 07:05:00,54.7,54.0,30.03,NW,313,0.0,2.0,96,0.00,,,0.03,weatherlink.com 1.10,2013-09-16 11:05:00,
2013-09-16 07:20:00,54.8,54.0,30.03,NNE,30,0.0,1.0,96,0.00,,,0.03,weatherlink.com 1.10,2013-09-16 11:20:00,
2013-09-16 07:35:00,54.8,54.0,30.03,NNE,30,0.0,1.0,96,0.00,,,0.03,weatherlink.com 1.10,2013-09-16 11:35:00,
2013-09-16 07:50:00,54.8,54.0,30.03,NNE,26,1.0,2.0,96,0.00,,,0.03,weatherlink.com 1.10,2013-09-16 11:50:00,
2013-09-16 08:05:00,55.0,54.0,30.04,NNE,27,1.0,1.0,96,0.00,,,0.03,weatherlink.com 1.10,2013-09-16 12:05:00,
2013-09-16 08:20:00,55.1,54.0,30.04,NNE,30,0.0,1.0,96,0.00,,,0.03,weatherlink.com 1.10,2013-09-16 12:20:00,
2013-09-16 08:36:00,55.8,55.0,30.04,NNE,30,0.0,1.0,96,0.00,,,0.03,weatherlink.com 1.10,2013-09-16 12:36:00,
2013-09-16 08:51:00,57.8,55.0,30.04,ENE,70,1.0,2.0,91,0.00,,,0.03,weatherlink.com 1.10,2013-09-16 12:51:00,
2013-09-16 09:06:00,58.7,54.0,30.05,SSE,154,0.0,1.0,85,0.00,,,0.03,weatherlink.com 1.10,2013-09-16 13:06:00,
2013-09-16 09:21:00,53.9,50.0,30.09,East,97,4.0,17.0,86,0.00,,,0.03,weatherlink.com 1.10,2013-09-16 13:21:00,
2013-09-16 09:36:00,51.0,48.0,30.10,NE,44,8.0,13.0,90,0.00,,,0.03,weatherlink.com 1.10,2013-09-16 13:36:00,
2013-09-16 09:51:00,50.6,48.0,30.11,SE,129,4.0,13.0,89,0.00,,,0.03,weatherlink.com 1.10,2013-09-16 13:51:00,
2013-09-16 10:06:00,49.7,46.0,30.11,NNW,348,3.0,16.0,88,0.00,,,0.03,weatherlink.com 1.10,2013-09-16 14:06:00,
2013-09-16 10:21:00,49.7,47.0,30.12,WNW,286,0.0,14.0,89,0.00,,,0.03,weatherlink.com 1.10,2013-09-16 14:21:00,
2013-09-16 10:36:00,49.6,46.0,30.13,NE,53,3.0,13.0,86,0.00,,,0.03,weatherlink.com 1.10,2013-09-16 14:36:00,
2013-09-16 10:51:00,49.6,46.0,30.14,NNE,30,8.0,11.0,86,0.00,,,0.03,weatherlink.com 1.10,2013-09-16 14:51:00,
2013-09-16 11:06:00,49.7,46.0,30.15,ESE,117,0.0,17.0,87,0.00,,,0.03,weatherlink.com 1.10,2013-09-16 15:06:00,
2013-09-16 11:21:00,49.3,45.0,30.15,East,98,5.0,13.0,85,0.00,,,0.03,weatherlink.com 1.10,2013-09-16 15:21:00,
2013-09-16 11:36:00,49.7,45.0,30.15,NNE,18,3.0,9.0,84,0.00,,,0.03,weatherlink.com 1.10,2013-09-16 15:36:00,
2013-09-16 11:51:00,50.7,45.0,30.15,ENE,68,4.0,12.0,81,0.00,,,0.03,weatherlink.com 1.10,2013-09-16 15:51:00,
2013-09-16 12:06:00,51.4,46.0,30.15,NE,56,8.0,15.0,82,0.00,,,0.03,weatherlink.com 1.10,2013-09-16 16:06:00,
2013-09-16 12:21:00,52.1,46.0,30.15,East,86,3.0,16.0,79,0.00,,,0.03,weatherlink.com 1.10,2013-09-16 16:21:00,
2013-09-16 12:36:00,52.7,45.0,30.15,ESE,111,11.0,18.0,75,0.00,,,0.03,weatherlink.com 1.10,2013-09-16 16:36:00,
2013-09-16 12:51:00,53.3,46.0,30.15,East,91,7.0,14.0,75,0.00,,,0.03,weatherlink.com 1.10,2013-09-16 16:51:00,
2013-09-16 13:06:00,53.3,46.0,30.15,NE,55,2.0,14.0,76,0.00,,,0.03,weatherlink.com 1.10,2013-09-16 17:06:00,
2013-09-16 13:21:00,53.7,45.0,30.15,SE,131,4.0,16.0,73,0.00,,,0.03,weatherlink.com 1.10,2013-09-16 17:21:00,
2013-09-16 13:36:00,53.5,45.0,30.15,ESE,115,4.0,14.0,73,0.00,,,0.03,weatherlink.com 1.10,2013-09-16 17:36:00,
2013-09-16 13:51:00,54.2,46.0,30.15,ENE,60,6.0,15.0,73,0.00,,,0.03,weatherlink.com 1.10,2013-09-16 17:51:00,
2013-09-16 14:06:00,53.7,45.0,30.16,SSE,162,1.0,14.0,72,0.00,,,0.03,weatherlink.com 1.10,2013-09-16 18:06:00,
2013-09-16 14:21:00,54.9,45.0,30.16,ENE,63,5.0,14.0,69,0.00,,,0.03,weatherlink.com 1.10,2013-09-16 18:21:00,
2013-09-16 14:36:00,55.9,45.0,30.16,NNE,25,5.0,13.0,67,0.00,,,0.03,weatherlink.com 1.10,2013-09-16 18:36:00,
2013-09-16 14:51:00,55.5,43.0,30.16,NE,51,7.0,16.0,64,0.00,,,0.03,weatherlink.com 1.10,2013-09-16 18:51:00,
2013-09-16 15:06:00,55.9,43.0,30.16,SE,133,7.0,14.0,63,0.00,,,0.03,weatherlink.com 1.10,2013-09-16 19:06:00,
2013-09-16 15:21:00,55.9,42.0,30.16,East,100,6.0,16.0,60,0.00,,,0.03,weatherlink.com 1.10,2013-09-16 19:21:00,
2013-09-16 15:36:00,55.7,42.0,30.16,East,91,7.0,15.0,60,0.00,,,0.03,weatherlink.com 1.10,2013-09-16 19:36:00,
2013-09-16 15:51:00,55.9,42.0,30.16,SSE,162,2.0,16.0,59,0.00,,,0.03,weatherlink.com 1.10,2013-09-16 19:51:00,
2013-09-16 16:06:00,56.1,42.0,30.16,ESE,114,3.0,14.0,60,0.00,,,0.03,weatherlink.com 1.10,2013-09-16 20:06:00,
2013-09-16 16:21:00,55.9,42.0,30.16,ENE,65,5.0,15.0,59,0.00,,,0.03,weatherlink.com 1.10,2013-09-16 20:21:00,
2013-09-16 16:36:00,56.2,43.0,30.16,ENE,65,3.0,9.0,61,0.00,,,0.03,weatherlink.com 1.10,2013-09-16 20:36:00,
2013-09-16 16:51:00,55.5,41.0,30.18,ESE,117,8.0,16.0,59,0.00,,,0.03,weatherlink.com 1.10,2013-09-16 20:51:00,
2013-09-16 17:06:00,55.1,41.0,30.18,ENE,68,8.0,13.0,59,0.00,,,0.03,weatherlink.com 1.10,2013-09-16 21:06:00,
2013-09-16 17:21:00,54.3,40.0,30.18,East,89,2.0,10.0,58,0.00,,,0.03,weatherlink.com 1.10,2013-09-16 21:21:00,
2013-09-16 17:36:00,54.0,39.0,30.19,East,94,4.0,18.0,58,0.00,,,0.03,weatherlink.com 1.10,2013-09-16 21:36:00,
2013-09-16 17:52:00,53.6,38.0,30.20,NE,35,7.0,15.0,57,0.00,,,0.03,weatherlink.com 1.10,2013-09-16 21:52:00,
2013-09-16 18:07:00,52.8,39.0,30.20,NNE,21,4.0,12.0,60,0.00,,,0.03,weatherlink.com 1.10,2013-09-16 22:07:00,
2013-09-16 18:22:00,52.0,39.0,30.21,SSE,160,3.0,8.0,62,0.00,,,0.03,weatherlink.com 1.10,2013-09-16 22:22:00,
2013-09-16 18:37:00,51.5,40.0,30.21,NNE,18,5.0,9.0,64,0.00,,,0.03,weatherlink.com 1.10,2013-09-16 22:37:00,
2013-09-16 18:52:00,50.8,40.0,30.22,North,11,3.0,9.0,67,0.00,,,0.03,weatherlink.com 1.10,2013-09-16 22:52:00,
2013-09-16 19:07:00,50.0,40.0,30.22,NNE,31,0.0,4.0,68,0.00,,,0.03,weatherlink.com 1.10,2013-09-16 23:07:00,
2013-09-16 19:22:00,49.2,41.0,30.23,NE,55,0.0,3.0,72,0.00,,,0.03,weatherlink.com 1.10,2013-09-16 23:22:00,
2013-09-16 19:37:00,47.7,41.0,30.24,North,7,1.0,1.0,78,0.00,,,0.03,weatherlink.com 1.10,2013-09-16 23:37:00,
2013-09-16 19:52:00,46.8,41.0,30.25,NE,45,0.0,1.0,79,0.00,,,0.03,weatherlink.com 1.10,2013-09-16 23:52:00,
2013-09-16 20:07:00,45.9,40.0,30.26,NE,36,0.0,2.0,81,0.00,,,0.03,weatherlink.com 1.10,2013-09-17 00:07:00,
2013-09-16 20:22:00,46.5,40.0,30.26,South,181,0.0,1.0,77,0.00,,,0.03,weatherlink.com 1.10,2013-09-17 00:22:00,
2013-09-16 20:37:00,46.1,40.0,30.27,NE,34,0.0,1.0,78,0.00,,,0.03,weatherlink.com 1.10,2013-09-17 00:37:00,
2013-09-16 20:52:00,44.4,40.0,30.27,NNE,30,1.0,1.0,85,0.00,,,0.03,weatherlink.com 1.10,2013-09-17 00:52:00,
2013-09-16 21:07:00,43.3,39.0,30.27,NNE,33,0.0,1.0,86,0.00,,,0.03,weatherlink.com 1.10,2013-09-17 01:07:00,
2013-09-16 21:22:00,42.8,40.0,30.28,NNE,33,0.0,1.0,88,0.00,,,0.03,weatherlink.com 1.10,2013-09-17 01:22:00,
2013-09-16 21:37:00,42.4,40.0,30.29,NNE,33,0.0,1.0,90,0.00,,,0.03,weatherlink.com 1.10,2013-09-17 01:37:00,
2013-09-16 21:52:00,41.7,39.0,30.29,NNE,33,0.0,1.0,91,0.00,,,0.03,weatherlink.com 1.10,2013-09-17 01:52:00,
2013-09-16 22:07:00,41.2,39.0,30.30,NNE,33,0.0,1.0,91,0.00,,,0.03,weatherlink.com 1.10,2013-09-17 02:07:00,
2013-09-16 22:22:00,40.9,39.0,30.30,NNE,33,0.0,1.0,93,0.00,,,0.03,weatherlink.com 1.10,2013-09-17 02:22:00,
2013-09-16 22:37:00,40.4,39.0,30.31,NNE,33,0.0,0.0,94,0.00,,,0.03,weatherlink.com 1.10,2013-09-17 02:37:00,
2013-09-16 22:52:00,40.1,39.0,30.31,NNE,33,0.0,1.0,94,0.00,,,0.03,weatherlink.com 1.10,2013-09-17 02:52:00,
2013-09-16 23:07:00,39.8,38.0,30.32,NNE,33,0.0,0.0,94,0.00,,,0.03,weatherlink.com 1.10,2013-09-17 03:07:00,
2013-09-16 23:22:00,39.4,38.0,30.32,NNE,32,1.0,2.0,95,0.00,,,0.03,weatherlink.com 1.10,2013-09-17 03:22:00,
2013-09-16 23:37:00,39.5,38.0,30.32,NE,34,0.0,1.0,94,0.00,,,0.03,weatherlink.com 1.10,2013-09-17 03:37:00,
2013-09-16 23:53:00,39.0,38.0,30.33,NE,35,0.0,1.0,95,0.00,,,0.03,weatherlink.com 1.10,2013-09-17 03:53:00,